[[{"header":{"parameterUnit":"m.s-1","parameterCategory":2,"la1":30.2991,"la2":30.254,"lo1":-89.0895,"lo2":-89.0444,"dx":0.0017,"dy":0.0017,"nx":28,"ny":28,"refTime":"2023-01-22T03:00:00:Z","depth":"0","parameterNumber":2,"parameterNumberName":"U-component_of_CURRENTS"},"data":[0,0,0,0,0,0,0,0,0,0,0,0,0,0,0,0,0,0,0,0,0,0,0,0,0,0,0,0,0,0,0,0,0,0,0,0,0,0,0,0,0,0,0,0,0,0,0,0,0,0,0,0,0,0,0,0,0,0,-0.2521,-0.2522,0,-0.2553,-0.2553,-0.2553,-0.2523,-0.2522,-0.2521,-0.2521,-0.2491,-0.2491,-0.2491,0,0,0,0,0,0,0,0,0,0,0,0,0,-0.2436,-0.2437,-0.2521,-0.2522,-0.2522,-0.2553,-0.2553,-0.2553,-0.2523,-0.2522,-0.2521,-0.252,-0.2491,-0.2491,-0.2491,0,0,0,0,0,0,0,0,0,0,0,0,0,-0.2468,-0.2438,-0.2521,-0.2513,-0.2513,-0.2553,-0.2553,-0.2553,-0.2524,-0.2522,-0.2521,-0.252,-0.2491,-0.2491,-0.2491,-0.2519,0,0,-0.2491,-0.2491,0,0,0,0,0,0,0,0,-0.2466,-0.2471,-0.2514,-0.2514,-0.2514,-0.2535,-0.2512,-0.254,-0.2524,-0.2517,-0.2521,-0.2519,-0.2503,-0.2502,-0.2508,-0.2518,-0.2517,-0.2491,-0.2491,-0.2491,-0.2491,0,0,0,0,0,0,0,-0.2464,-0.2469,-0.2531,-0.2515,-0.2515,-0.2509,-0.2512,-0.2517,-0.2514,-0.2517,-0.2516,-0.2525,-0.2502,-0.2508,-0.2507,-0.2516,-0.2491,-0.2491,-0.2491,-0.2491,-0.2525,-0.2526,0,0,0,0,0,0,-0.2468,-0.2467,-0.253,-0.2532,-0.2489,-0.2512,-0.2515,-0.2527,-0.2515,-0.2513,-0.2526,-0.2523,-0.2508,-0.2507,-0.2505,-0.2523,-0.2491,-0.2491,-0.2491,-0.2524,-0.2525,-0.2526,0,0,0,0,0,0,-0.2466,-0.2473,-0.2529,-0.2502,-0.2509,-0.2515,-0.2529,-0.2529,-0.253,-0.2523,-0.2519,-0.2527,-0.2507,-0.2505,-0.2508,-0.2522,-0.2491,-0.2492,-0.2523,-0.2524,-0.2526,-0.2568,0,0,0,0,0,0,-0.2463,-0.2472,-0.2476,-0.2503,-0.2511,-0.2551,-0.2531,-0.2531,-0.2539,-0.2536,-0.2523,-0.2519,-0.2506,-0.2508,-0.2508,-0.2522,-0.2492,-0.2522,-0.2524,-0.2525,-0.2566,-0.2571,-0.2575,0,0,0,0,0,-0.246,-0.2475,-0.2476,-0.2483,-0.2518,-0.2552,-0.2555,-0.2552,-0.254,-0.2546,-0.2536,-0.2519,-0.2517,-0.2509,-0.2509,-0.2523,-0.2521,-0.2523,-0.2525,-0.2564,-0.257,-0.2575,0,0,0,0,0,0,-0.2438,-0.2475,-0.2476,-0.25,-0.2523,-0.2548,-0.2552,-0.2557,-0.2556,-0.2546,-0.2532,-0.2529,-0.2534,-0.2527,-0.2517,-0.2537,-0.2516,-0.2518,-0.2546,-0.2551,-0.2556,-0.2555,-0.2492,0,0,0,0,0,-0.2438,-0.2452,-0.2491,-0.2504,-0.2519,-0.2537,-0.2547,-0.2552,-0.256,-0.2558,-0.2551,-0.2544,-0.2546,-0.2545,-0.2543,-0.2559,-0.255,-0.2567,-0.2572,-0.2576,-0.2576,-0.258,-0.2585,-0.2532,-0.2532,-0.2532,0,0,-0.243,-0.2452,-0.2458,-0.2499,-0.2513,-0.2543,-0.2538,-0.256,-0.2579,-0.2556,-0.2566,-0.2559,-0.2553,-0.2566,-0.2568,-0.2559,-0.2588,-0.2578,-0.2582,-0.2579,-0.2583,-0.2588,-0.2593,-0.2533,-0.2533,-0.2533,0,0,-0.2426,-0.2446,-0.2458,-0.2488,-0.2521,-0.2541,-0.255,-0.2581,-0.2585,-0.2605,-0.259,-0.2595,-0.2596,-0.2599,-0.26,-0.2633,-0.261,-0.2629,-0.2654,-0.266,-0.2664,-0.2667,-0.2667,-0.2671,-0.2633,-0.2633,-0.2633,0,-0.2412,-0.2439,-0.2466,-0.2496,-0.252,-0.2543,-0.2571,-0.2591,-0.2614,-0.2625,-0.2608,-0.2622,-0.2615,-0.2639,-0.2645,-0.2644,-0.2637,-0.2634,-0.2665,-0.2669,-0.2672,-0.2671,-0.2674,-0.2636,-0.2635,-0.2635,-0.2635,0,-0.2424,-0.245,-0.2463,-0.2506,-0.2539,-0.2565,-0.2611,-0.2631,-0.2639,-0.2656,-0.2675,-0.2671,-0.2676,-0.2681,-0.2671,-0.2695,-0.268,-0.2669,-0.2651,-0.268,-0.2677,-0.2679,-0.2639,-0.2638,-0.2637,-0.2637,0,0,-0.237,-0.2454,-0.2455,-0.2483,-0.2548,-0.2576,-0.2621,-0.2667,-0.2693,-0.2706,-0.2734,-0.274,-0.2733,-0.2734,-0.2727,-0.2734,-0.275,-0.2709,-0.2709,-0.2708,-0.2755,-0.2672,-0.2666,-0.2741,-0.2742,-0.2742,-0.2746,0,-0.2362,-0.2419,-0.2466,-0.2514,-0.2548,-0.2602,-0.2646,-0.2693,-0.272,-0.2753,-0.2762,-0.2777,-0.2756,-0.2756,-0.2762,-0.2755,-0.2757,-0.275,-0.2727,-0.2727,-0.2648,-0.2666,-0.2549,-0.2535,-0.2748,-0.2748,-0.2749,0,-0.2346,-0.239,-0.2441,-0.2528,-0.2549,-0.2584,-0.2657,-0.2694,-0.2758,-0.2782,-0.2804,-0.2811,-0.283,-0.2802,-0.2805,-0.2798,-0.2776,-0.2767,-0.2767,-0.2674,-0.2648,-0.254,-0.2531,-0.251,-0.2752,-0.2752,-0.2751,0,-0.2283,-0.2367,-0.2405,-0.2435,-0.2539,-0.257,-0.2615,-0.269,-0.2722,-0.2785,-0.2809,-0.2843,-0.2842,-0.2838,-0.2812,-0.281,-0.2806,-0.2803,-0.2711,-0.2705,-0.2591,-0.2574,-0.2555,-0.2798,-0.2798,-0.2798,-0.2798,0,-0.2251,-0.2274,-0.2378,-0.2399,-0.2438,-0.2528,-0.2572,-0.2625,-0.2704,-0.2738,-0.2798,-0.2822,-0.2846,-0.2847,-0.2829,-0.2769,-0.2816,-0.2713,-0.2699,-0.2603,-0.2587,-0.2551,-0.2577,-0.2798,-0.2798,-0.2798,-0.2798,0,-0.2158,-0.2232,-0.2272,-0.2379,-0.2405,-0.2422,-0.2522,-0.2563,-0.2645,-0.2689,-0.2707,-0.2795,-0.2799,-0.2811,-0.2807,-0.2767,-0.2685,-0.2701,-0.2582,-0.2552,-0.2435,-0.2468,-0.2423,-0.2356,-0.2608,-0.2606,-0.2604,0,-0.2114,-0.213,-0.222,-0.2244,-0.2283,-0.2336,-0.2381,-0.2495,-0.2546,-0.2661,-0.2678,-0.2718,-0.2721,-0.2696,-0.2648,-0.2602,-0.2599,-0.2467,-0.2438,-0.2408,-0.2435,-0.2447,-0.2396,-0.2314,-0.231,-0.2307,-0.2305,0,-0.2015,-0.2046,-0.2081,-0.2125,-0.217,-0.2216,-0.2292,-0.2328,-0.2462,-0.2511,-0.2567,-0.2578,-0.2581,-0.2491,-0.2439,-0.2397,-0.2398,-0.2396,-0.2399,-0.2227,-0.2206,-0.2141,-0.2344,-0.2276,-0.2278,-0.2281,-0.2282,-0.2283,-0.1917,-0.1914,-0.1961,-0.1988,-0.2037,-0.2062,-0.2057,-0.2166,-0.22,-0.2253,-0.2372,-0.2364,-0.2362,-0.2269,-0.2233,-0.2121,-0.2181,-0.2056,-0.2108,-0.213,-0.2031,-0.2163,-0.2055,-0.2057,-0.2058,-0.2059,-0.206,0,-0.1791,-0.1807,-0.1829,-0.1854,-0.1846,-0.1912,-0.1971,-0.1952,-0.1946,-0.2052,-0.2072,-0.2097,-0.2012,-0.2032,-0.1949,-0.1865,-0.1823,-0.1826,-0.1829,-0.1796,-0.1929,-0.1878,-0.1685,-0.1685,-0.1685,-0.1685,-0.1685,-0.1685,-0.1722,-0.1691,-0.1706,-0.1639,-0.1658,-0.1591,-0.1584,-0.1579,-0.1626,-0.1637,-0.1697,-0.1802,-0.1839,-0.1962,-0.1856,-0.1767,-0.1734,-0.166,-0.1706,-0.1824,-0.185,-0.1874,-0.1831,-0.1631,-0.1632,-0.1481,-0.148,-0.148]},{"header":{"parameterUnit":"m.s-1","parameterCategory":2,"la1":30.2991,"la2":30.254,"lo1":-89.0895,"lo2":-89.0444,"dx":0.0017,"dy":0.0017,"nx":28,"ny":28,"refTime":"2023-01-22T03:00:00:Z","depth":"0","parameterNumber":3,"parameterNumberName":"V-component_of_CURRENTS"},"data":[0,0,0,0,0,0,0,0,0,0,0,0,0,0,0,0,0,0,0,0,0,0,0,0,0,0,0,0,0,0,0,0,0,0,0,0,0,0,0,0,0,0,0,0,0,0,0,0,0,0,0,0,0,0,0,0,0,0,-0.0232,-0.0231,0,-0.0141,-0.014,-0.0139,-0.0083,-0.0082,-0.0082,-0.0082,0.0041,0.0044,0.0047,0,0,0,0,0,0,0,0,0,0,0,0,0,-0.0316,-0.0315,-0.0232,-0.0231,-0.023,-0.0141,-0.014,-0.0138,-0.0083,-0.0082,-0.0082,-0.0082,0.004,0.0044,0.0048,0,0,0,0,0,0,0,0,0,0,0,0,0,-0.0257,-0.0315,-0.0232,-0.0192,-0.0187,-0.0141,-0.014,-0.0138,-0.0083,-0.0082,-0.0082,-0.0082,0.0039,0.0044,0.0048,0.0069,0,0,0.0062,0.0064,0,0,0,0,0,0,0,0,-0.0261,-0.0254,-0.0199,-0.0194,-0.0189,-0.0123,-0.0124,-0.0068,-0.0083,-0.0122,-0.0082,-0.0081,-0.0011,-0.0003,0.0014,0.0074,0.008,0.0062,0.0065,0.0067,0.0068,0,0,0,0,0,0,0,-0.0265,-0.0258,-0.0195,-0.0198,-0.0192,-0.0164,-0.0155,-0.0113,-0.0069,-0.0118,-0.0114,-0.0105,-0.0008,0.0009,0.0017,0.0081,0.0062,0.0066,0.0069,0.0071,0.0182,0.0182,0,0,0,0,0,0,-0.028,-0.0262,-0.0198,-0.0193,-0.0225,-0.0163,-0.0153,-0.0144,-0.007,-0.0059,-0.0105,-0.0103,0.0001,0.0012,0.0022,0.0054,0.0067,0.0071,0.0074,0.0182,0.0182,0.0182,0,0,0,0,0,0,-0.0282,-0.0275,-0.0202,-0.0226,-0.0214,-0.0162,-0.0152,-0.0143,-0.0124,-0.006,-0.0048,-0.0097,0.0002,0.0015,0.0061,0.0059,0.0073,0.0078,0.0181,0.0182,0.0182,0.0117,0,0,0,0,0,0,-0.0285,-0.0276,-0.0277,-0.0227,-0.0214,-0.018,-0.0152,-0.0141,-0.0119,-0.0115,-0.0049,-0.0037,0.0003,0.0054,0.0065,0.0066,0.0081,0.0181,0.0182,0.0182,0.0119,0.0115,0.0112,0,0,0,0,0,-0.0288,-0.0292,-0.0278,-0.027,-0.0216,-0.018,-0.0171,-0.0132,-0.012,-0.0114,-0.0067,-0.0039,0.0065,0.0058,0.0071,0.0073,0.0181,0.0182,0.0182,0.012,0.0116,0.0112,0,0,0,0,0,0,-0.0331,-0.0285,-0.0269,-0.0259,-0.0225,-0.0171,-0.0164,-0.0137,-0.0096,-0.0093,-0.0034,-0.0019,0.0018,0.0057,0.0047,0.0107,0.0127,0.013,0.0075,0.0071,0.0068,0.0051,0.0085,0,0,0,0,0,-0.0342,-0.0331,-0.0284,-0.0277,-0.0263,-0.0215,-0.0197,-0.0171,-0.0128,-0.0109,-0.0062,-0.0012,0.0031,0.0058,0.0101,0.0136,0.0174,0.0146,0.0143,0.0139,0.0136,0.0191,0.0191,0.0184,0.0184,0.0184,0,0,-0.0357,-0.0331,-0.0325,-0.0285,-0.0257,-0.0242,-0.0204,-0.0181,-0.0166,-0.0102,-0.007,-0.0024,0.0037,0.0074,0.0094,0.0106,0.0162,0.014,0.0136,0.0135,0.0191,0.0192,0.0192,0.0184,0.0184,0.0184,0,0,-0.0386,-0.036,-0.0363,-0.0337,-0.0299,-0.0267,-0.0264,-0.0212,-0.0187,-0.0149,-0.0102,-0.0057,0.001,0.0055,0.0085,0.0089,0.0138,0.0102,0.0076,0.0128,0.0129,0.013,0.0178,0.0184,0.0104,0.0104,0.0104,0,-0.0409,-0.0404,-0.0359,-0.0355,-0.034,-0.0283,-0.0284,-0.0248,-0.0188,-0.0167,-0.0148,-0.0048,0.0001,0.0052,0.0053,0.008,0.0116,0.0084,0.0122,0.0124,0.0127,0.0175,0.0183,0.0101,0.0101,0.0101,0.0102,0,-0.0436,-0.0434,-0.0434,-0.0409,-0.0385,-0.0378,-0.0323,-0.0299,-0.0263,-0.0221,-0.0166,-0.0094,-0.0034,-0.0012,0.0023,0.0064,0.0086,0.0106,0.0128,0.0123,0.0175,0.0184,0.0096,0.0097,0.0098,0.0099,0,0,-0.0484,-0.0462,-0.0461,-0.0469,-0.0416,-0.0405,-0.0376,-0.0335,-0.0322,-0.0253,-0.0225,-0.0144,-0.0102,-0.0065,-0.001,0.0039,0.0086,0.0073,0.0078,0.011,0.02,0.0248,0.0262,0.0111,0.0112,0.0113,0.0228,0,-0.0523,-0.054,-0.0508,-0.0524,-0.0529,-0.0473,-0.045,-0.0402,-0.0351,-0.0307,-0.0221,-0.0174,-0.0122,-0.0096,-0.0038,0.0057,0.0106,0.0053,0.0208,0.0213,0.0248,0.0273,0.0304,0.0411,0.0237,0.0238,0.0239,0,-0.056,-0.0566,-0.059,-0.0588,-0.0585,-0.058,-0.0542,-0.0517,-0.0433,-0.0391,-0.0319,-0.0248,-0.0157,-0.0121,0.0042,0.0005,0.0091,0.0165,0.0171,0.0245,0.0277,0.039,0.0434,0.0585,0.0253,0.0252,0.0251,0,-0.0618,-0.0628,-0.0654,-0.0651,-0.0629,-0.063,-0.0614,-0.0543,-0.0526,-0.0443,-0.0416,-0.0294,-0.0233,-0.0105,0.0058,0.0048,0.0237,0.0244,0.0369,0.0374,0.0446,0.0454,0.0647,0.0347,0.0347,0.0347,0.0346,0,-0.0671,-0.0698,-0.069,-0.0707,-0.0739,-0.0694,-0.0705,-0.0668,-0.0607,-0.0584,-0.0468,-0.0412,-0.0228,-0.0092,0.0048,0.0249,0.0236,0.0373,0.0412,0.0424,0.0429,0.0601,0.0659,0.0351,0.035,0.0349,0.0349,0,-0.073,-0.0726,-0.0768,-0.0766,-0.077,-0.0792,-0.0779,-0.0781,-0.0711,-0.0676,-0.0653,-0.0495,-0.0305,-0.011,0.0112,0.0236,0.0521,0.0486,0.0488,0.0525,0.0771,0.0823,0.104,0.1134,0.064,0.0642,0.0644,0,-0.0764,-0.0789,-0.082,-0.0853,-0.086,-0.0879,-0.0889,-0.0839,-0.0832,-0.0717,-0.0703,-0.0519,-0.0363,-0.0009,0.0247,0.0513,0.062,0.0678,0.0666,0.0804,0.089,0.0914,0.0978,0.0737,0.0739,0.0741,0.0742,0,-0.0826,-0.0836,-0.0867,-0.0929,-0.0964,-0.0997,-0.1004,-0.1013,-0.094,-0.0875,-0.0752,-0.0616,-0.026,0.0081,0.0426,0.0576,0.0798,0.0724,0.0877,0.0995,0.1026,0.1127,0.0635,0.0759,0.0757,0.0756,0.0755,0.0755,-0.0869,-0.091,-0.0947,-0.1007,-0.1052,-0.1096,-0.1115,-0.1097,-0.1062,-0.0943,-0.0795,-0.0554,-0.0061,0.0447,0.0635,0.101,0.0958,0.1102,0.1158,0.1171,0.126,0.0801,0.0959,0.0959,0.0958,0.0958,0.0957,0,-0.0914,-0.0959,-0.1024,-0.1093,-0.1149,-0.1148,-0.1174,-0.1157,-0.1105,-0.0944,-0.0774,-0.0235,0.0256,0.0695,0.1245,0.1436,0.147,0.1517,0.1565,0.1613,0.1226,0.1228,0.1441,0.1441,0.144,0.144,0.144,0.144,-0.0943,-0.101,-0.1043,-0.1148,-0.1196,-0.1237,-0.1245,-0.1197,-0.1081,-0.079,-0.0491,-0.0229,0.0407,0.132,0.1816,0.1844,0.201,0.1974,0.2075,0.1809,0.1774,0.1741,0.1759,0.2079,0.208,0.2441,0.2445,0.2448]}],[{"header":{"parameterUnit":"m.s-1","parameterCategory":2,"la1":30.2991,"la2":30.254,"lo1":-89.0895,"lo2":-89.0444,"dx":0.0017,"dy":0.0017,"nx":28,"ny":28,"refTime":"2023-01-22T03:00:00:Z","depth":"2","parameterNumber":2,"parameterNumberName":"U-component_of_CURRENTS"},"data":[0,0,0,0,0,0,0,0,0,0,0,0,0,0,0,0,0,0,0,0,0,0,0,0,0,0,0,0,0,0,0,0,0,0,0,0,0,0,0,0,0,0,0,0,0,0,0,0,0,0,0,0,0,0,0,0,0,0,-0.2261,-0.2261,0,-0.2283,-0.2283,-0.2283,-0.2258,-0.2257,-0.2256,-0.2256,-0.2227,-0.2227,-0.2227,0,0,0,0,0,0,0,0,0,0,0,0,0,-0.2188,-0.2189,-0.2261,-0.2261,-0.2262,-0.2283,-0.2283,-0.2283,-0.2258,-0.2257,-0.2256,-0.2255,-0.2227,-0.2227,-0.2227,0,0,0,0,0,0,0,0,0,0,0,0,0,-0.2213,-0.219,-0.2261,-0.2254,-0.2254,-0.2283,-0.2283,-0.2283,-0.2258,-0.2257,-0.2256,-0.2255,-0.2227,-0.2227,-0.2227,-0.2247,0,0,-0.2226,-0.2226,0,0,0,0,0,0,0,0,-0.2212,-0.2215,-0.2254,-0.2254,-0.2254,-0.2269,-0.2247,-0.2269,-0.2258,-0.2253,-0.2256,-0.2255,-0.2239,-0.2238,-0.2241,-0.2245,-0.2244,-0.2226,-0.2226,-0.2226,-0.2226,0,0,0,0,0,0,0,-0.221,-0.2214,-0.2267,-0.2255,-0.2255,-0.2247,-0.2249,-0.2251,-0.2249,-0.2254,-0.2253,-0.226,-0.2238,-0.2241,-0.224,-0.2244,-0.2226,-0.2226,-0.2226,-0.2226,-0.2256,-0.2256,0,0,0,0,0,0,-0.2215,-0.2213,-0.2266,-0.2268,-0.2233,-0.2249,-0.2252,-0.2263,-0.225,-0.2248,-0.2261,-0.2259,-0.2242,-0.224,-0.2239,-0.226,-0.2226,-0.2226,-0.2226,-0.2255,-0.2256,-0.2257,0,0,0,0,0,0,-0.2213,-0.222,-0.2265,-0.2242,-0.2248,-0.2252,-0.2265,-0.2264,-0.2268,-0.2256,-0.2253,-0.2265,-0.2241,-0.2239,-0.2243,-0.2259,-0.2226,-0.2226,-0.2254,-0.2255,-0.2256,-0.2304,0,0,0,0,0,0,-0.2211,-0.2219,-0.2225,-0.2243,-0.225,-0.2285,-0.2266,-0.2265,-0.2275,-0.2272,-0.2259,-0.2255,-0.224,-0.2243,-0.2242,-0.2258,-0.2226,-0.2252,-0.2254,-0.2256,-0.2301,-0.2307,-0.2311,0,0,0,0,0,-0.2209,-0.2223,-0.2225,-0.2231,-0.2259,-0.2286,-0.2288,-0.2285,-0.2276,-0.2283,-0.2273,-0.2256,-0.2253,-0.2244,-0.2243,-0.2259,-0.2252,-0.2254,-0.2256,-0.2299,-0.2306,-0.2311,0,0,0,0,0,0,-0.2192,-0.2223,-0.2225,-0.2247,-0.2266,-0.2282,-0.2288,-0.2291,-0.2291,-0.2285,-0.2268,-0.2265,-0.2272,-0.2262,-0.2253,-0.2272,-0.2249,-0.2251,-0.2283,-0.2289,-0.2294,-0.2295,-0.2225,0,0,0,0,0,-0.2194,-0.2209,-0.2239,-0.2253,-0.2266,-0.2279,-0.2288,-0.2292,-0.2297,-0.2296,-0.2289,-0.2282,-0.2282,-0.2282,-0.2277,-0.2293,-0.2283,-0.2302,-0.2307,-0.2312,-0.2312,-0.2317,-0.2322,-0.2263,-0.2263,-0.2263,0,0,-0.2189,-0.2208,-0.2215,-0.225,-0.2261,-0.2286,-0.228,-0.23,-0.2318,-0.2294,-0.2306,-0.2299,-0.229,-0.2302,-0.2305,-0.2295,-0.2324,-0.2314,-0.2318,-0.2316,-0.2319,-0.2325,-0.233,-0.2265,-0.2264,-0.2264,0,0,-0.2188,-0.2208,-0.222,-0.2245,-0.2275,-0.2289,-0.2299,-0.2323,-0.2329,-0.2347,-0.2333,-0.2339,-0.2338,-0.2339,-0.2339,-0.2372,-0.235,-0.237,-0.2399,-0.2404,-0.2409,-0.2413,-0.2411,-0.2415,-0.2374,-0.2375,-0.2375,0,-0.2178,-0.2203,-0.2227,-0.2253,-0.2274,-0.2294,-0.2319,-0.2336,-0.2356,-0.2367,-0.2353,-0.2366,-0.2358,-0.238,-0.2388,-0.2384,-0.2378,-0.2376,-0.241,-0.2414,-0.2417,-0.2415,-0.2418,-0.2377,-0.2377,-0.2377,-0.2376,0,-0.2191,-0.2215,-0.2227,-0.2265,-0.2294,-0.2318,-0.2356,-0.2377,-0.2387,-0.2402,-0.2424,-0.2418,-0.2423,-0.2427,-0.2416,-0.2442,-0.2427,-0.2415,-0.2394,-0.2426,-0.2422,-0.2424,-0.2381,-0.238,-0.2379,-0.2378,0,0,-0.2147,-0.2221,-0.2222,-0.2247,-0.2304,-0.2328,-0.2371,-0.2412,-0.2438,-0.2453,-0.2482,-0.2487,-0.2483,-0.2483,-0.2476,-0.2483,-0.2503,-0.246,-0.2459,-0.2458,-0.2509,-0.2427,-0.2422,-0.2495,-0.2496,-0.2496,-0.2498,0,-0.2141,-0.2192,-0.2233,-0.2276,-0.2305,-0.2354,-0.2395,-0.2439,-0.2466,-0.2499,-0.2509,-0.2526,-0.2506,-0.2508,-0.2516,-0.2507,-0.2511,-0.2503,-0.2478,-0.2478,-0.24,-0.2423,-0.223,-0.2209,-0.25,-0.25,-0.2501,0,-0.2128,-0.2167,-0.2213,-0.2291,-0.2309,-0.2342,-0.2411,-0.2445,-0.2506,-0.2531,-0.2556,-0.2563,-0.2584,-0.2557,-0.256,-0.2555,-0.2534,-0.2524,-0.2523,-0.243,-0.24,-0.2223,-0.2202,-0.2504,-0.2504,-0.2504,-0.2504,0,-0.2074,-0.2148,-0.2183,-0.221,-0.2302,-0.2333,-0.2375,-0.2446,-0.2476,-0.254,-0.2565,-0.2599,-0.2601,-0.2597,-0.257,-0.2568,-0.2564,-0.2559,-0.2468,-0.2462,-0.2283,-0.226,-0.2555,-0.2555,-0.2555,-0.2555,-0.2555,0,-0.2045,-0.2067,-0.2161,-0.2179,-0.2217,-0.2299,-0.2343,-0.2393,-0.2469,-0.2501,-0.256,-0.2583,-0.2607,-0.2607,-0.2588,-0.2528,-0.2575,-0.2472,-0.2456,-0.2294,-0.2273,-0.2516,-0.2511,-0.2555,-0.2555,-0.2555,-0.2555,0,-0.1962,-0.2029,-0.2065,-0.2163,-0.2188,-0.2206,-0.2301,-0.234,-0.242,-0.2463,-0.2481,-0.2564,-0.2565,-0.2575,-0.2568,-0.2528,-0.2497,-0.246,-0.2266,-0.2227,-0.2392,-0.239,-0.2373,-0.237,-0.2368,-0.2366,-0.2364,0,-0.1923,-0.1937,-0.202,-0.2043,-0.208,-0.2132,-0.2174,-0.2281,-0.2328,-0.2436,-0.2451,-0.2489,-0.2485,-0.2458,-0.2402,-0.2353,-0.2424,-0.215,-0.211,-0.2387,-0.2374,-0.2375,-0.2377,-0.1898,-0.1893,-0.1888,-0.1885,0,-0.1833,-0.1863,-0.1894,-0.1935,-0.1979,-0.202,-0.2092,-0.2123,-0.2247,-0.229,-0.2336,-0.2341,-0.2336,-0.2199,-0.2144,-0.2093,-0.2147,-0.2058,-0.239,-0.1975,-0.1938,-0.1926,-0.1943,-0.1845,-0.1849,-0.1852,-0.1854,-0.1856,-0.1744,-0.1742,-0.1785,-0.1811,-0.1856,-0.1876,-0.1869,-0.1964,-0.1989,-0.2022,-0.2132,-0.208,-0.2092,-0.1905,-0.1824,-0.1762,-0.1906,-0.182,-0.1833,-0.1852,-0.1797,-0.1759,-0.1622,-0.1624,-0.1626,-0.1628,-0.163,0,-0.1627,-0.1643,-0.1664,-0.1685,-0.1677,-0.1739,-0.1786,-0.1758,-0.1738,-0.18,-0.1802,-0.1636,-0.1552,-0.1574,-0.1414,-0.1394,-0.1385,-0.134,-0.132,-0.1359,-0.1394,-0.1317,-0.1013,-0.1012,-0.101,-0.1009,0,0,-0.1563,-0.1533,-0.1545,-0.1481,-0.15,-0.1432,-0.142,-0.1393,-0.1403,-0.1341,-0.132,-0.1447,-0.1508,-0.1256,-0.1202,-0.1077,-0.1206,-0.1026,-0.1516,-0.1528,-0.1561,-0.166,-0.1583,0,0,0,0,0]},{"header":{"parameterUnit":"m.s-1","parameterCategory":2,"la1":30.2991,"la2":30.254,"lo1":-89.0895,"lo2":-89.0444,"dx":0.0017,"dy":0.0017,"nx":28,"ny":28,"refTime":"2023-01-22T03:00:00:Z","depth":"2","parameterNumber":3,"parameterNumberName":"V-component_of_CURRENTS"},"data":[0,0,0,0,0,0,0,0,0,0,0,0,0,0,0,0,0,0,0,0,0,0,0,0,0,0,0,0,0,0,0,0,0,0,0,0,0,0,0,0,0,0,0,0,0,0,0,0,0,0,0,0,0,0,0,0,0,0,-0.0192,-0.0191,0,-0.0108,-0.0107,-0.0106,-0.0054,-0.0053,-0.0053,-0.0053,0.0062,0.0065,0.0068,0,0,0,0,0,0,0,0,0,0,0,0,0,-0.0271,-0.027,-0.0192,-0.0191,-0.019,-0.0108,-0.0107,-0.0105,-0.0054,-0.0053,-0.0053,-0.0053,0.0061,0.0065,0.0068,0,0,0,0,0,0,0,0,0,0,0,0,0,-0.0217,-0.027,-0.0193,-0.0155,-0.0151,-0.0108,-0.0107,-0.0105,-0.0054,-0.0053,-0.0053,-0.0053,0.006,0.0064,0.0068,0.0088,0,0,0.0082,0.0083,0,0,0,0,0,0,0,0,-0.022,-0.0214,-0.0161,-0.0157,-0.0153,-0.0091,-0.0092,-0.0039,-0.0054,-0.009,-0.0053,-0.0053,0.0013,0.0021,0.0037,0.0093,0.0098,0.0082,0.0084,0.0086,0.0088,0,0,0,0,0,0,0,-0.0224,-0.0217,-0.0158,-0.016,-0.0155,-0.0129,-0.0121,-0.0082,-0.0041,-0.0087,-0.0083,-0.0074,0.0016,0.0032,0.004,0.01,0.0082,0.0086,0.0088,0.009,0.0194,0.0194,0,0,0,0,0,0,-0.0237,-0.0221,-0.0161,-0.0156,-0.0186,-0.0128,-0.0119,-0.0111,-0.0042,-0.0031,-0.0075,-0.0072,0.0025,0.0035,0.0044,0.0075,0.0086,0.009,0.0093,0.0193,0.0194,0.0194,0,0,0,0,0,0,-0.0239,-0.0233,-0.0165,-0.0187,-0.0176,-0.0128,-0.0118,-0.0109,-0.0093,-0.0033,-0.0021,-0.0067,0.0026,0.0038,0.008,0.008,0.0092,0.0096,0.0193,0.0194,0.0194,0.0135,0,0,0,0,0,0,-0.0242,-0.0234,-0.0235,-0.0188,-0.0175,-0.0144,-0.0118,-0.0108,-0.0088,-0.0084,-0.0023,-0.0012,0.0027,0.0073,0.0084,0.0086,0.0099,0.0193,0.0193,0.0194,0.0137,0.0133,0.013,0,0,0,0,0,-0.0245,-0.0249,-0.0236,-0.0229,-0.0178,-0.0145,-0.0136,-0.01,-0.0089,-0.0084,-0.004,-0.0013,0.0083,0.0077,0.009,0.0093,0.0193,0.0193,0.0194,0.0138,0.0134,0.013,0,0,0,0,0,0,-0.0285,-0.0243,-0.0227,-0.0219,-0.0187,-0.0136,-0.013,-0.0105,-0.0068,-0.0065,-0.0009,0.0005,0.004,0.0076,0.0067,0.0124,0.0142,0.0145,0.0095,0.0092,0.0089,0.0073,0.0103,0,0,0,0,0,-0.0296,-0.0286,-0.0242,-0.0236,-0.0223,-0.0179,-0.0162,-0.0138,-0.0097,-0.008,-0.0036,0.0011,0.0052,0.0078,0.0118,0.0151,0.0186,0.0162,0.0158,0.0155,0.0152,0.0206,0.0207,0.0195,0.0195,0.0195,0,0,-0.031,-0.0286,-0.0281,-0.0244,-0.0218,-0.0204,-0.0168,-0.0148,-0.0133,-0.0074,-0.0043,-0.0001,0.0057,0.0093,0.0112,0.0123,0.0177,0.0156,0.0153,0.0151,0.0206,0.0207,0.0208,0.0196,0.0196,0.0196,0,0,-0.0338,-0.0314,-0.0317,-0.0293,-0.0258,-0.0228,-0.0225,-0.0177,-0.0153,-0.0118,-0.0074,-0.0031,0.0032,0.0075,0.0105,0.0109,0.0154,0.0121,0.0098,0.015,0.0151,0.0152,0.0193,0.0199,0.0124,0.0124,0.0123,0,-0.036,-0.0355,-0.0314,-0.0309,-0.0295,-0.0243,-0.0244,-0.021,-0.0154,-0.0134,-0.0117,-0.0022,0.0024,0.0075,0.0076,0.0102,0.0134,0.0105,0.0144,0.0147,0.0149,0.0191,0.0198,0.0121,0.0121,0.0121,0.0122,0,-0.0386,-0.0383,-0.0384,-0.036,-0.0337,-0.0331,-0.0279,-0.0257,-0.0223,-0.0184,-0.0131,-0.0063,-0.0006,0.0016,0.0048,0.009,0.0108,0.0129,0.015,0.0147,0.0191,0.02,0.0117,0.0118,0.0119,0.0119,0,0,-0.0433,-0.041,-0.041,-0.0417,-0.0366,-0.0356,-0.0327,-0.0288,-0.0276,-0.0211,-0.0183,-0.0106,-0.0067,-0.0031,0.0021,0.007,0.0114,0.0101,0.0105,0.0133,0.0221,0.0256,0.0269,0.0141,0.0142,0.0143,0.0243,0,-0.047,-0.0484,-0.0453,-0.0468,-0.0472,-0.0419,-0.0396,-0.035,-0.0302,-0.0261,-0.0178,-0.0134,-0.0083,-0.006,-0.0002,0.0087,0.0134,0.0084,0.0228,0.0232,0.0257,0.028,0.0243,0.0331,0.0251,0.0253,0.0254,0,-0.0505,-0.0509,-0.0531,-0.0527,-0.0524,-0.0519,-0.0482,-0.0459,-0.0378,-0.0338,-0.0269,-0.0203,-0.0115,-0.008,0.0075,0.004,0.012,0.0189,0.0195,0.0254,0.0283,0.0324,0.035,0.0268,0.0267,0.0266,0.0265,0,-0.0561,-0.0568,-0.0593,-0.0589,-0.0566,-0.0567,-0.0552,-0.0483,-0.0467,-0.0388,-0.0363,-0.0245,-0.0188,-0.0066,0.0085,0.0078,0.0253,0.0264,0.0371,0.0374,0.0386,0.0388,0.0362,0.0362,0.0362,0.0362,0.0361,0,-0.0611,-0.0636,-0.0627,-0.0643,-0.0673,-0.0629,-0.0639,-0.0605,-0.0545,-0.0524,-0.0413,-0.0362,-0.0183,-0.0056,0.0074,0.0258,0.0251,0.0374,0.0408,0.0364,0.0363,0.0342,0.0338,0.0365,0.0365,0.0364,0.0363,0,-0.0669,-0.0664,-0.0703,-0.0699,-0.0703,-0.0725,-0.0712,-0.0714,-0.0647,-0.0615,-0.0594,-0.0444,-0.0269,-0.0083,0.0126,0.0242,0.041,0.047,0.0404,0.0429,0.0495,0.0487,0.0599,0.0602,0.0603,0.0605,0.0606,0,-0.0702,-0.0725,-0.0754,-0.0786,-0.0792,-0.0811,-0.082,-0.0771,-0.0763,-0.0659,-0.0647,-0.0478,-0.0336,-0.0008,0.0225,0.0471,0.0465,0.0564,0.055,0.05,0.0523,0.0512,0.0502,0.0538,0.0539,0.0539,0.054,0,-0.0764,-0.0774,-0.0802,-0.0861,-0.0895,-0.0926,-0.0932,-0.0939,-0.0869,-0.0811,-0.07,-0.0579,-0.0258,0.0023,0.0338,0.0468,0.0526,0.0583,0.0565,0.0483,0.0451,0.047,0.046,0.0545,0.0544,0.0544,0.0544,0.0543,-0.0808,-0.0847,-0.0882,-0.094,-0.0982,-0.1022,-0.1041,-0.1021,-0.0989,-0.088,-0.0751,-0.0538,-0.0263,0.0191,0.0418,0.0612,0.0606,0.0647,0.0642,0.0637,0.0611,0.0584,0.0698,0.0698,0.0698,0.0699,0.0699,0,-0.0854,-0.0897,-0.0959,-0.1023,-0.1076,-0.1076,-0.1099,-0.108,-0.1032,-0.0889,-0.0737,-0.0432,-0.0104,0.0172,0.0498,0.0697,0.0665,0.071,0.0636,0.063,0.0626,0.0596,0.0681,0.0681,0.0682,0.0682,0,0,-0.0883,-0.0948,-0.0979,-0.1079,-0.1125,-0.1164,-0.1173,-0.1122,-0.1015,-0.0862,-0.0694,-0.0445,-0.0098,0.0132,0.0381,0.0547,0.0531,0.0548,0.054,0.0419,0.0412,0.0567,0.0513,0,0,0,0,0]}],[{"header":{"parameterUnit":"m.s-1","parameterCategory":2,"la1":30.2991,"la2":30.254,"lo1":-89.0895,"lo2":-89.0444,"dx":0.0017,"dy":0.0017,"nx":28,"ny":28,"refTime":"2023-01-22T03:00:00:Z","depth":"4","parameterNumber":2,"parameterNumberName":"U-component_of_CURRENTS"},"data":[0,0,0,0,0,0,0,0,0,0,0,0,0,0,0,0,0,0,0,0,0,0,0,0,0,0,0,0,0,0,0,0,0,0,0,0,0,0,0,0,0,0,0,0,0,0,0,0,0,0,0,0,0,0,0,0,0,0,-0.163,-0.1631,0,-0.1675,-0.1675,-0.1676,-0.1702,-0.1702,-0.1703,-0.1703,-0.1733,-0.1733,-0.1734,0,0,0,0,0,0,0,0,0,0,0,0,0,-0.1552,-0.1554,-0.163,-0.1631,-0.1631,-0.1675,-0.1676,-0.1676,-0.1702,-0.1702,-0.1703,-0.1703,-0.1733,-0.1733,-0.1734,0,0,0,0,0,0,0,0,0,0,0,0,0,-0.1589,-0.1554,-0.163,-0.1651,-0.1654,-0.1675,-0.1676,-0.1676,-0.1702,-0.1702,-0.1703,-0.1703,-0.1733,-0.1733,-0.1734,-0.1731,0,0,-0.1737,-0.1737,0,0,0,0,0,0,0,0,-0.1587,-0.1591,-0.1647,-0.165,-0.1653,-0.1685,-0.1659,-0.1694,-0.1702,-0.1682,-0.1703,-0.1703,-0.1716,-0.1719,-0.1724,-0.1732,-0.1734,-0.1737,-0.1737,-0.1738,-0.1738,0,0,0,0,0,0,0,-0.1584,-0.159,-0.1646,-0.1648,-0.1651,-0.1654,-0.1659,-0.1666,-0.1694,-0.1683,-0.1686,-0.1694,-0.1718,-0.1723,-0.1725,-0.1734,-0.1737,-0.1737,-0.1738,-0.1738,-0.1806,-0.1807,0,0,0,0,0,0,-0.1583,-0.1587,-0.1645,-0.1648,-0.1622,-0.1655,-0.1661,-0.1673,-0.1695,-0.1699,-0.1693,-0.1695,-0.1721,-0.1724,-0.1726,-0.1786,-0.1738,-0.1738,-0.1739,-0.1804,-0.1806,-0.1807,0,0,0,0,0,0,-0.1581,-0.1588,-0.1643,-0.162,-0.1627,-0.1656,-0.1669,-0.1673,-0.1705,-0.1703,-0.1707,-0.1724,-0.1722,-0.1725,-0.1756,-0.1785,-0.1739,-0.1739,-0.1803,-0.1805,-0.1807,-0.1865,0,0,0,0,0,0,-0.1579,-0.1587,-0.1607,-0.162,-0.1628,-0.1672,-0.1669,-0.1674,-0.1709,-0.1712,-0.173,-0.1731,-0.1722,-0.1755,-0.1757,-0.1785,-0.174,-0.1801,-0.1804,-0.1806,-0.1862,-0.1869,-0.1875,0,0,0,0,0,-0.1576,-0.1597,-0.1608,-0.1615,-0.1651,-0.1674,-0.1679,-0.1698,-0.171,-0.1728,-0.1743,-0.1732,-0.1772,-0.1757,-0.1759,-0.1788,-0.18,-0.1803,-0.1806,-0.1859,-0.1867,-0.1875,0,0,0,0,0,0,-0.1573,-0.1602,-0.1614,-0.1644,-0.1666,-0.1679,-0.1701,-0.1715,-0.1742,-0.1752,-0.1749,-0.1752,-0.1788,-0.1782,-0.1766,-0.1814,-0.1784,-0.1788,-0.1824,-0.1832,-0.1839,-0.1837,-0.1741,0,0,0,0,0,-0.1582,-0.1607,-0.163,-0.1656,-0.1671,-0.1692,-0.171,-0.1725,-0.1744,-0.1758,-0.1771,-0.1785,-0.1797,-0.1811,-0.1818,-0.1847,-0.1833,-0.1867,-0.1874,-0.188,-0.188,-0.1888,-0.1895,-0.1817,-0.1817,-0.1817,0,0,-0.1589,-0.1607,-0.1623,-0.1658,-0.1677,-0.1703,-0.1704,-0.1739,-0.1766,-0.1756,-0.1804,-0.181,-0.181,-0.1842,-0.1858,-0.1844,-0.1895,-0.1883,-0.1888,-0.1885,-0.1891,-0.1899,-0.1905,-0.1819,-0.1819,-0.1818,0,0,-0.1599,-0.1632,-0.1653,-0.1677,-0.1714,-0.1728,-0.1745,-0.1777,-0.1802,-0.1842,-0.1842,-0.1869,-0.1892,-0.1899,-0.1902,-0.1952,-0.1929,-0.1958,-0.1995,-0.2003,-0.2009,-0.2014,-0.2007,-0.2011,-0.1964,-0.1964,-0.1964,0,-0.1607,-0.1635,-0.1662,-0.1688,-0.1713,-0.1743,-0.1772,-0.18,-0.1841,-0.1864,-0.1867,-0.1913,-0.1917,-0.195,-0.1968,-0.1968,-0.1962,-0.1964,-0.2011,-0.2016,-0.202,-0.2011,-0.2015,-0.1968,-0.1967,-0.1967,-0.1967,0,-0.1623,-0.1659,-0.1675,-0.1718,-0.175,-0.1781,-0.1822,-0.1862,-0.1896,-0.1919,-0.1971,-0.198,-0.2004,-0.2015,-0.2007,-0.2046,-0.2028,-0.2016,-0.1989,-0.2032,-0.2019,-0.2022,-0.1972,-0.1971,-0.197,-0.1969,0,0,-0.1595,-0.1672,-0.168,-0.171,-0.1772,-0.1796,-0.1855,-0.1906,-0.1948,-0.199,-0.2037,-0.2066,-0.2076,-0.208,-0.2081,-0.2094,-0.2122,-0.2074,-0.2073,-0.2063,-0.2131,-0.1982,-0.1971,-0.212,-0.212,-0.2121,-0.211,0,-0.1598,-0.1651,-0.1692,-0.175,-0.1779,-0.1837,-0.1888,-0.1944,-0.1991,-0.2044,-0.2071,-0.2109,-0.21,-0.2116,-0.2131,-0.2125,-0.2132,-0.2125,-0.2093,-0.2092,-0.1952,-0.197,-0.2124,-0.2112,-0.2112,-0.2113,-0.2113,0,-0.1587,-0.1628,-0.1686,-0.1771,-0.1792,-0.1837,-0.1925,-0.197,-0.2049,-0.2089,-0.2134,-0.2154,-0.219,-0.2171,-0.2183,-0.218,-0.216,-0.215,-0.2149,-0.1989,-0.1948,-0.206,-0.2118,-0.2117,-0.2117,-0.2116,-0.2116,0,-0.1535,-0.1619,-0.1669,-0.1698,-0.1797,-0.1845,-0.1898,-0.1985,-0.2024,-0.2112,-0.2146,-0.2196,-0.2214,-0.2215,-0.2193,-0.2195,-0.2189,-0.2186,-0.2033,-0.2023,-0.2135,-0.2129,-0.2186,-0.2186,-0.2186,-0.2186,-0.2186,0,-0.15,-0.154,-0.1656,-0.168,-0.1741,-0.1825,-0.1894,-0.1954,-0.2042,-0.2078,-0.2157,-0.2177,-0.2226,-0.2226,-0.2208,-0.2114,-0.2197,-0.2032,-0.2007,-0.216,-0.2158,-0.2137,-0.2131,-0.2185,-0.2185,-0.2185,-0.2185,0,-0.1418,-0.1499,-0.1556,-0.1677,-0.1714,-0.1753,-0.187,-0.1915,-0.2009,-0.2057,-0.2083,-0.2165,-0.2158,-0.2177,-0.2172,-0.2103,-0.2052,-0.1997,-0.2153,-0.2138,-0.1882,-0.188,-0.1831,-0.1825,-0.1821,-0.1817,-0.1814,0,-0.1377,-0.1403,-0.1529,-0.1567,-0.1623,-0.1703,-0.1756,-0.1873,-0.1914,-0.2022,-0.2027,-0.2067,-0.2099,-0.1965,-0.2012,-0.1958,-0.1931,-0.1897,-0.1895,-0.1864,-0.1845,-0.185,-0.1854,-0.1807,-0.1805,-0.1804,-0.1803,0,-0.1289,-0.1349,-0.1399,-0.1471,-0.1539,-0.1595,-0.1679,-0.1694,-0.1814,-0.1928,-0.1904,-0.1889,-0.1875,-0.186,-0.182,-0.1788,-0.192,-0.1849,-0.1859,-0.1856,-0.1834,-0.1821,-0.183,-0.1787,-0.1789,-0.1791,-0.1792,0,-0.1219,-0.1233,-0.1306,-0.1355,-0.1432,-0.1449,-0.1517,-0.1562,-0.1605,-0.1737,-0.1724,-0.177,-0.1849,-0.177,-0.1741,-0.1688,-0.1667,-0.1615,-0.1637,-0.1655,-0.1601,-0.1547,-0.1381,0,0,0,0,0,-0.114,-0.1143,-0.1185,-0.123,-0.1303,-0.1333,-0.1446,-0.1523,-0.1649,-0.1582,-0.1644,-0.1623,-0.1575,-0.1608,-0.1514,-0.1663,-0.1676,-0.1548,-0.1629,-0.1699,-0.1717,-0.167,0,0,0,0,0,0,-0.1085,-0.1118,-0.1133,-0.1103,-0.1112,-0.1164,-0.1222,-0.1318,-0.1296,-0.1431,-0.141,-0.1512,-0.1489,-0.1586,-0.1472,-0.148,-0.1495,-0.1591,-0.1587,-0.1689,-0.1705,-0.172,-0.1677,0,0,0,0,0]},{"header":{"parameterUnit":"m.s-1","parameterCategory":2,"la1":30.2991,"la2":30.254,"lo1":-89.0895,"lo2":-89.0444,"dx":0.0017,"dy":0.0017,"nx":28,"ny":28,"refTime":"2023-01-22T03:00:00:Z","depth":"4","parameterNumber":3,"parameterNumberName":"V-component_of_CURRENTS"},"data":[0,0,0,0,0,0,0,0,0,0,0,0,0,0,0,0,0,0,0,0,0,0,0,0,0,0,0,0,0,0,0,0,0,0,0,0,0,0,0,0,0,0,0,0,0,0,0,0,0,0,0,0,0,0,0,0,0,0,-0.0126,-0.0125,0,-0.0066,-0.0066,-0.0065,-0.0027,-0.0027,-0.0027,-0.0027,0.0065,0.0067,0.0069,0,0,0,0,0,0,0,0,0,0,0,0,0,-0.0179,-0.0178,-0.0126,-0.0125,-0.0124,-0.0067,-0.0066,-0.0065,-0.0027,-0.0027,-0.0027,-0.0027,0.0064,0.0067,0.007,0,0,0,0,0,0,0,0,0,0,0,0,0,-0.0141,-0.0178,-0.0126,-0.0099,-0.0096,-0.0067,-0.0066,-0.0065,-0.0027,-0.0027,-0.0027,-0.0026,0.0063,0.0067,0.007,0.0085,0,0,0.008,0.0082,0,0,0,0,0,0,0,0,-0.0143,-0.0139,-0.0104,-0.0101,-0.0097,-0.0054,-0.0051,-0.0013,-0.0027,-0.0053,-0.0027,-0.0026,0.0028,0.0034,0.0045,0.009,0.0093,0.0081,0.0083,0.0084,0.0085,0,0,0,0,0,0,0,-0.0146,-0.0141,-0.0102,-0.0103,-0.0099,-0.008,-0.0075,-0.0044,-0.0014,-0.0051,-0.0048,-0.0042,0.003,0.0041,0.0047,0.0095,0.0081,0.0084,0.0086,0.0087,0.0171,0.0171,0,0,0,0,0,0,-0.0156,-0.0144,-0.0104,-0.01,-0.0121,-0.008,-0.0074,-0.0068,-0.0015,-0.0007,-0.0042,-0.0041,0.0035,0.0043,0.005,0.0077,0.0084,0.0087,0.0089,0.0171,0.0171,0.0172,0,0,0,0,0,0,-0.0157,-0.0153,-0.0106,-0.0121,-0.0114,-0.0079,-0.0073,-0.0067,-0.0056,-0.0009,-0.0,-0.0038,0.0036,0.0046,0.0078,0.0081,0.0089,0.0092,0.0171,0.0171,0.0171,0.0127,0,0,0,0,0,0,-0.0159,-0.0154,-0.0157,-0.0122,-0.0113,-0.0093,-0.0073,-0.0066,-0.0053,-0.005,-0.0003,0.0006,0.0037,0.0073,0.0082,0.0085,0.0095,0.0171,0.0171,0.0171,0.0128,0.0125,0.0123,0,0,0,0,0,-0.0161,-0.0165,-0.0157,-0.0152,-0.0117,-0.0094,-0.0088,-0.0062,-0.0054,-0.0051,-0.0017,0.0005,0.0082,0.0076,0.0086,0.0091,0.017,0.0171,0.0171,0.0129,0.0126,0.0123,0,0,0,0,0,0,-0.0191,-0.0161,-0.0151,-0.0147,-0.0125,-0.0088,-0.0085,-0.0067,-0.0039,-0.0037,0.0007,0.0019,0.0047,0.0076,0.0068,0.0117,0.013,0.0132,0.0094,0.0092,0.0089,0.0076,0.0097,0,0,0,0,0,-0.0199,-0.0195,-0.0163,-0.0161,-0.0153,-0.0121,-0.011,-0.0092,-0.0062,-0.0049,-0.0014,0.0023,0.0057,0.0078,0.011,0.0138,0.0166,0.0148,0.0146,0.0143,0.014,0.0189,0.019,0.0173,0.0173,0.0173,0,0,-0.0211,-0.0195,-0.0193,-0.0167,-0.015,-0.014,-0.0113,-0.0101,-0.009,-0.0043,-0.002,0.0014,0.0061,0.0091,0.0106,0.0116,0.0162,0.0144,0.0142,0.014,0.0189,0.0191,0.0192,0.0173,0.0173,0.0173,0,0,-0.0234,-0.0218,-0.0223,-0.0206,-0.0183,-0.0161,-0.016,-0.0125,-0.0107,-0.0081,-0.0045,-0.0009,0.004,0.0078,0.0103,0.0108,0.0144,0.0117,0.0101,0.0148,0.015,0.0151,0.0181,0.0186,0.0121,0.0121,0.0121,0,-0.0251,-0.025,-0.0221,-0.0219,-0.021,-0.0173,-0.0175,-0.015,-0.0108,-0.0093,-0.0081,-0.0003,0.0035,0.0081,0.0082,0.0103,0.0129,0.0106,0.0144,0.0147,0.0149,0.018,0.0186,0.0119,0.0119,0.0119,0.012,0,-0.0271,-0.0273,-0.0275,-0.026,-0.0244,-0.0242,-0.0203,-0.0188,-0.0164,-0.0133,-0.009,-0.0033,0.0014,0.0033,0.006,0.0099,0.011,0.013,0.0148,0.0148,0.018,0.0187,0.0116,0.0117,0.0117,0.0118,0,0,-0.0306,-0.0294,-0.0296,-0.0304,-0.0268,-0.0262,-0.0241,-0.0212,-0.0204,-0.0153,-0.0131,-0.0065,-0.0033,-0.0003,0.0042,0.0086,0.0125,0.0111,0.0115,0.0134,0.0217,0.02,0.0206,0.0152,0.0153,0.0154,0.0228,0,-0.0335,-0.035,-0.0329,-0.0345,-0.0349,-0.0312,-0.0296,-0.0261,-0.0225,-0.0194,-0.0125,-0.0089,-0.0045,-0.0026,0.0027,0.0102,0.0143,0.0102,0.022,0.0223,0.0203,0.0214,0.0158,0.0234,0.0235,0.0236,0.0237,0,-0.036,-0.0367,-0.0389,-0.0392,-0.0391,-0.0393,-0.0368,-0.0352,-0.0289,-0.0258,-0.02,-0.0146,-0.007,-0.004,0.0093,0.0065,0.0132,0.019,0.0195,0.02,0.0219,0.0237,0.025,0.0249,0.0248,0.0248,0.0247,0,-0.0399,-0.0413,-0.0438,-0.0436,-0.0426,-0.0433,-0.0425,-0.0374,-0.0363,-0.0302,-0.0283,-0.0181,-0.0133,-0.0028,0.0096,0.0095,0.0237,0.0254,0.0302,0.0301,0.0313,0.0311,0.0339,0.0339,0.0339,0.0339,0.0339,0,-0.0431,-0.0458,-0.0466,-0.048,-0.0514,-0.0483,-0.05,-0.0475,-0.0431,-0.0416,-0.0326,-0.0286,-0.0128,-0.0025,0.0084,0.0215,0.0233,0.0298,0.0323,0.0292,0.0286,0.0318,0.0314,0.0342,0.0341,0.034,0.034,0,-0.0468,-0.0474,-0.0514,-0.0525,-0.0536,-0.056,-0.0564,-0.0568,-0.052,-0.0496,-0.048,-0.0359,-0.0221,-0.0066,0.0111,0.0191,0.032,0.0359,0.0303,0.0323,0.0353,0.0347,0.0417,0.0417,0.0417,0.0417,0.0418,0,-0.0487,-0.051,-0.0557,-0.0592,-0.0606,-0.0634,-0.0649,-0.0618,-0.0611,-0.0536,-0.0526,-0.0398,-0.03,-0.0059,0.0097,0.0304,0.0331,0.0386,0.0379,0.0346,0.0363,0.0356,0.035,0.0418,0.0418,0.0418,0.0418,0,-0.0524,-0.0547,-0.0578,-0.0645,-0.0686,-0.0721,-0.0737,-0.0737,-0.0686,-0.0649,-0.0546,-0.0413,-0.0259,-0.0065,0.0096,0.0242,0.0347,0.0388,0.0388,0.0383,0.0348,0.0363,0.0356,0.0418,0.0418,0.0418,0.0418,0,-0.0553,-0.0588,-0.0634,-0.0691,-0.0749,-0.0784,-0.0789,-0.0759,-0.0738,-0.064,-0.0608,-0.0428,-0.0313,-0.0098,0.005,0.0195,0.0228,0.0264,0.0272,0.0273,0.0209,0.0143,0.0171,0,0,0,0,0,-0.0572,-0.0614,-0.0675,-0.0735,-0.0791,-0.0818,-0.0833,-0.082,-0.077,-0.0703,-0.0647,-0.0496,-0.0257,-0.0153,-0.001,0.0034,0.0235,0.0202,0.0275,0.042,0.0419,0.0368,0,0,0,0,0,0,-0.0588,-0.0648,-0.0676,-0.0751,-0.0797,-0.0849,-0.086,-0.083,-0.0775,-0.0706,-0.0574,-0.048,-0.0247,-0.0336,-0.0012,0.0032,0.0092,0.0324,0.0327,0.042,0.0419,0.0419,0.0366,0,0,0,0,0]}]]